Overview Statistics Trail Chart Weather Telemetry Raw packets
 

This is the latest recevied weather packets stored in our database for station/object LU4EGV-13. If no packets are shown the sender has not sent any weather packets the latest 10 day(s).

<< 2 3 4 5 6 7 8 >>
Time Temp. Humidity Pressure Rain* Wind** Luminosity Snow
1788620975 11.11° C 52% 1022.6 hPa 0 mm - - -
1788620369 12.22° C 50% 1022.5 hPa 0 mm - - -
1788619762 11.11° C 54% 1022.5 hPa 0 mm - - -
1788619159 11.11° C 55% 1022.4 hPa 0 mm - - -
1788618551 10.56° C 60% 1022.2 hPa 0 mm - - -
1788617944 10.56° C 60% 1022.3 hPa 0 mm - - -
1788617338 10.56° C 60% 1022.1 hPa 0 mm - - -
1788616732 10.56° C 61% 1022.3 hPa 0 mm - - -
1788616125 10° C 62% 1022.2 hPa 0 mm - - -
1788615519 10.56° C 63% 1022.1 hPa 0 mm - - -
1788614924 10° C 64% 1022 hPa 0 mm - - -
1788614306 10° C 65% 1022 hPa 0 mm - - -
1788613701 9.44° C 66% 1022.1 hPa 0 mm - - -
1788613095 9.44° C 66% 1021.9 hPa 0 mm - - -
1788612489 8.89° C 67% 1021.6 hPa 0 mm - - -
1788611882 8.89° C 71% 1021.6 hPa 0 mm - - -
1788611275 8.33° C 72% 1021.3 hPa 0 mm - - -
1788610674 7.78° C 72% 1021.3 hPa 0 mm - - -
1788610063 7.78° C 75% 1021.3 hPa 0 mm - - -
1788609458 7.22° C 78% 1021 hPa 0 mm - - -
1788608851 6.67° C 80% 1021 hPa 0 mm - - -
1788608247 6.67° C 82% 1020.8 hPa 0 mm - - -
1788607660 6.67° C 83% 1020.7 hPa 0 mm - - -
1788607032 6.11° C 83% 1020.6 hPa 0 mm - - -
1788606427 6.11° C 83% 1020.4 hPa 0 mm - - -

* Rain latest hour (hover to see other rain measurements)
** Current wind speed in m/s (hover to see current wind gust speed)